Home   Weather   Nottingham   Past weeks

Flag for United Kingdom Past Weather in Nottingham, England, United Kingdom — Yesterday and Last 2 Weeks

Now
59 °F

Passing clouds.


Feels Like: 58 °F
Forecast: 56 / 68 °F
Wind: 6 mph from West

Location: East Midlands

Current Time: Sep 1, 2016 at 2:52:54 AM

Latest Report: Sep 1, 2016 at 2:20 AM


Visibility: N/A

Pressure: 30.18 "Hg

Humidity: 82%

Dew Point: 54 °F

Location of NottinghamLocation

Past Weather in Nottingham — Graph

°F

Nottingham Temperature Yesterday

Maximum temperature yesterday: 72 °F (at 1:50 PM)
Minimum temperature yesterday: 55 °F (at 5:20 AM)
Average temperature yesterday: 63 °F

High & Low Weather Summary for the Past Weeks

 TemperatureHumidityPressure
High84 °F (Aug 23, 3:50 PM)100% (Aug 17, 4:50 AM)30.27 "Hg (Aug 17, 4:50 AM)
Low50 °F (Aug 17, 3:50 AM)39% (Aug 17, 5:50 PM)29.53 "Hg (Aug 20, 6:50 AM)
Average64 °F79%29.99 "Hg
* Reported Aug 17 1:20 AM — Sep 1 1:50 AM, Nottingham, Weather by CustomWeather, © 2016

Note: Actual official high and low records may vary slightly from our data, if they occured in-between our weather recording intervals... More about our weather records

Advertising

Nottingham Weather History for the Previous 24 Hours

Scroll right to see more
 ConditionsComfort  
Time TempWeatherWind HumidityBarometerVisibility
1:50 AM
Thu, Sep 1
59 °FClear.8 mph82%30.18 "Hg10 mi
1:20 AM59 °FClear.7 mph82%30.18 "Hg10 mi
12:50 AM57 °FClear.10 mph88%30.18 "Hg10 mi
12:20 AM57 °FClear.8 mph82%30.15 "Hg10 mi
11:50 PM
Wed, Aug 31
59 °FClear.9 mph77%30.15 "Hg10 mi
11:20 PM59 °FClear.8 mph77%30.15 "Hg10 mi
10:50 PM59 °FClear.8 mph77%30.15 "Hg10 mi
10:20 PM59 °FClear.7 mph82%30.15 "Hg10 mi
9:50 PM59 °FClear.7 mph82%30.15 "Hg10 mi
9:20 PM59 °FClear.6 mph82%30.15 "Hg10 mi
8:50 PM61 °FSunny.7 mph77%30.15 "Hg10 mi
8:20 PM63 °FSunny.8 mph73%30.12 "Hg10 mi
7:50 PM63 °FPassing clouds.8 mph73%30.12 "HgN/A
7:20 PM64 °FScattered clouds.13 mph64%30.12 "HgN/A
6:50 PM64 °FScattered clouds.13 mph64%30.09 "HgN/A
6:20 PM66 °FScattered clouds.13 mph60%30.09 "HgN/A
5:50 PM70 °FScattered clouds.16 mph50%30.09 "HgN/A
5:20 PM72 °FScattered clouds.17 mph47%30.09 "HgN/A
4:50 PM70 °FScattered clouds.14 mph46%30.09 "HgN/A
4:20 PM72 °FScattered clouds.16 mph47%30.07 "HgN/A
3:50 PM72 °FPassing clouds.16 mph41%30.07 "HgN/A
3:20 PM72 °FScattered clouds.16 mph53%30.07 "HgN/A
2:50 PM72 °FBroken clouds.14 mph61%30.07 "HgN/A
2:20 PM70 °FBroken clouds.15 mph69%30.07 "HgN/A
1:50 PM72 °FBroken clouds.13 mph65%30.07 "HgN/A
1:20 PM70 °FBroken clouds.15 mph69%30.07 "HgN/A
12:50 PM68 °FPartly sunny.13 mph69%30.07 "HgN/A
12:20 PM66 °FPartly sunny.14 mph73%30.07 "HgN/A
11:50 AM66 °FPartly sunny.15 mph73%30.07 "HgN/A
11:20 AM66 °FScattered clouds.15 mph73%30.07 "HgN/A
10:50 AM66 °FScattered clouds.14 mph73%30.07 "HgN/A
10:20 AM64 °FScattered clouds.16 mph73%30.07 "HgN/A
9:50 AM64 °FPassing clouds.15 mph73%30.07 "HgN/A
9:20 AM63 °FPassing clouds.12 mph77%30.07 "HgN/A
8:50 AM61 °FPassing clouds.13 mph83%30.07 "HgN/A
7:50 AM59 °FScattered clouds.13 mph88%30.07 "HgN/A
7:20 AM59 °FPassing clouds.12 mph82%30.07 "HgN/A
6:50 AM57 °FPassing clouds.12 mph88%30.07 "HgN/A
6:20 AM57 °FPassing clouds.12 mph88%30.07 "Hg6 mi
5:50 AM55 °FClear.10 mph94%30.07 "Hg10 mi
5:20 AM55 °FClear.10 mph94%30.07 "Hg10 mi
4:50 AM57 °FClear.9 mph82%30.09 "Hg10 mi
4:20 AM57 °FClear.9 mph88%30.09 "Hg10 mi
3:50 AM57 °FPassing clouds.10 mph88%30.09 "HgN/A
3:20 AM57 °FClear.9 mph82%30.09 "Hg10 mi
2:50 AM59 °FClear.9 mph77%30.09 "Hg10 mi
2:20 AM59 °FClear.8 mph77%30.09 "Hg10 mi
Weather by CustomWeather, © 2016

See weather overviewHow to use our weather pages